DAL1354 KIAD-KJFK

Flight info

Callsign DAL1354
Flight time 0h 44m
Altitude 27000
Route JCOBY4 AGARD DONIL T315 PANZE V44 CAMRN CAMRN5
Aircraft A320/M-SDE3FGHIRWY/LB1

Departure

Time 2026-05-09 00:25
Airport Washington Dulles International Airport (KIAD)

Arrival

Time 2026-05-09 01:10
Airport John F. Kennedy International Airport (KJFK)
Time Latitude Longitude Altitude Speed Heading
2026-05-08 23:29 38.94834 -77.45432 293 ft 0 kts 12°
2026-05-09 00:11 38.94829 -77.45433 292 ft 3 kts 12°
2026-05-09 00:11 38.94802 -77.45441 296 ft 4 kts 12°
2026-05-09 00:11 38.94776 -77.45448 298 ft 4 kts 12°
2026-05-09 00:12 38.94754 -77.45454 296 ft 4 kts
2026-05-09 00:12 38.94736 -77.45450 295 ft 4 kts 286°
2026-05-09 00:12 38.94734 -77.45418 295 ft 4 kts 270°
2026-05-09 00:12 38.94733 -77.45386 294 ft 2 kts 270°
2026-05-09 00:13 38.94733 -77.45384 294 ft 0 kts 270°
2026-05-09 00:19 38.94733 -77.45391 294 ft 4 kts 270°
2026-05-09 00:19 38.94734 -77.45445 295 ft 10 kts 271°
2026-05-09 00:19 38.94734 -77.45505 293 ft 9 kts 271°
2026-05-09 00:20 38.94716 -77.45594 294 ft 7 kts 220°
2026-05-09 00:20 38.94673 -77.45608 295 ft 11 kts 183°
2026-05-09 00:20 38.94546 -77.45611 294 ft 17 kts 180°
2026-05-09 00:20 38.94420 -77.45611 295 ft 19 kts 182°
2026-05-09 00:21 38.94336 -77.45615 295 ft 18 kts 180°
2026-05-09 00:21 38.94202 -77.45615 294 ft 20 kts 180°
2026-05-09 00:21 38.94060 -77.45616 294 ft 21 kts 181°
2026-05-09 00:21 38.93910 -77.45618 294 ft 22 kts 180°
2026-05-09 00:22 38.93760 -77.45618 295 ft 19 kts 179°
2026-05-09 00:22 38.93668 -77.45564 293 ft 14 kts 131°
2026-05-09 00:22 38.93611 -77.45498 295 ft 10 kts 166°
2026-05-09 00:22 38.93539 -77.45520 294 ft 12 kts 201°
2026-05-09 00:23 38.93488 -77.45546 295 ft 0 kts 200°
2026-05-09 00:23 38.93462 -77.45558 295 ft 9 kts 200°
2026-05-09 00:24 38.93389 -77.45627 293 ft 17 kts 250°
2026-05-09 00:24 38.93414 -77.45769 296 ft 17 kts 291°
2026-05-09 00:24 38.93496 -77.46072 297 ft 72 kts 286°
2026-05-09 00:24 38.93760 -77.46951 300 ft 137 kts 291°
2026-05-09 00:25 38.94167 -77.48289 422 ft 178 kts 292°
2026-05-09 00:25 38.94716 -77.49832 784 ft 204 kts 296°
2026-05-09 00:25 38.95429 -77.51583 1075 ft 239 kts 299°
2026-05-09 00:25 38.96380 -77.53467 1650 ft 259 kts 308°
2026-05-09 00:26 38.97622 -77.55175 2512 ft 264 kts 313°
2026-05-09 00:26 38.98938 -77.56837 2889 ft 265 kts 313°
2026-05-09 00:26 39.00238 -77.58515 3030 ft 264 kts 312°
2026-05-09 00:26 39.01493 -77.60232 3417 ft 264 kts 311°
2026-05-09 00:27 39.02975 -77.61631 4117 ft 269 kts 336°
2026-05-09 00:27 39.04814 -77.62103 4835 ft 274 kts
2026-05-09 00:27 39.06656 -77.61469 5489 ft 279 kts 29°
2026-05-09 00:27 39.08102 -77.59814 6105 ft 283 kts 57°
2026-05-09 00:28 39.08894 -77.57492 6699 ft 287 kts 72°
2026-05-09 00:28 39.09528 -77.55029 7251 ft 293 kts 72°
2026-05-09 00:28 39.10176 -77.52525 7857 ft 297 kts 72°
2026-05-09 00:28 39.10836 -77.49989 8467 ft 301 kts 71°
2026-05-09 00:29 39.11503 -77.47426 9070 ft 305 kts 71°
2026-05-09 00:29 39.12185 -77.44820 9663 ft 309 kts 71°
2026-05-09 00:29 39.12876 -77.42183 10214 ft 314 kts 70°
2026-05-09 00:29 39.13591 -77.39458 10474 ft 329 kts 70°
2026-05-09 00:30 39.14343 -77.36593 10699 ft 345 kts 70°
2026-05-09 00:30 39.15059 -77.33569 10908 ft 362 kts 77°
2026-05-09 00:30 39.15391 -77.30279 11112 ft 378 kts 88°
2026-05-09 00:30 39.15231 -77.26854 11385 ft 389 kts 100°
2026-05-09 00:31 39.14663 -77.23429 11862 ft 393 kts 103°
2026-05-09 00:31 39.14069 -77.19975 12388 ft 397 kts 103°
2026-05-09 00:31 39.13477 -77.16469 12896 ft 401 kts 102°
2026-05-09 00:31 39.12900 -77.12940 13395 ft 406 kts 101°
2026-05-09 00:32 39.12335 -77.09363 13880 ft 410 kts 101°
2026-05-09 00:32 39.11769 -77.05739 14294 ft 414 kts 101°
2026-05-09 00:32 39.11203 -77.02094 14703 ft 419 kts 101°
2026-05-09 00:32 39.10533 -76.98413 15105 ft 424 kts 108°
2026-05-09 00:33 39.09508 -76.94841 15500 ft 428 kts 111°
2026-05-09 00:33 39.08446 -76.91286 15877 ft 433 kts 111°
2026-05-09 00:33 39.07348 -76.87604 16305 ft 437 kts 111°
2026-05-09 00:33 39.06251 -76.83933 16700 ft 442 kts 111°
2026-05-09 00:34 39.05144 -76.80229 16983 ft 446 kts 111°
2026-05-09 00:34 39.04022 -76.76466 17044 ft 457 kts 111°
2026-05-09 00:34 39.02882 -76.72648 17043 ft 468 kts 111°
2026-05-09 00:34 39.01779 -76.68644 17042 ft 469 kts 105°
2026-05-09 00:35 39.01122 -76.64599 17038 ft 468 kts 96°
2026-05-09 00:35 39.00940 -76.60432 17040 ft 466 kts 87°
2026-05-09 00:35 39.00973 -76.56270 17033 ft 467 kts 87°
2026-05-09 00:35 39.00994 -76.52094 17036 ft 467 kts 88°
2026-05-09 00:36 39.01000 -76.47918 17011 ft 467 kts 88°
2026-05-09 00:36 39.00998 -76.43750 17013 ft 467 kts 88°
2026-05-09 00:36 39.01160 -76.39590 17011 ft 465 kts 80°
2026-05-09 00:36 39.01561 -76.35476 17015 ft 464 kts 79°
2026-05-09 00:37 39.01973 -76.31357 17023 ft 464 kts 79°
2026-05-09 00:37 39.02388 -76.27240 17019 ft 464 kts 79°
2026-05-09 00:37 39.02803 -76.23115 17025 ft 465 kts 79°
2026-05-09 00:37 39.03213 -76.18995 17031 ft 465 kts 79°
2026-05-09 00:38 39.03615 -76.14874 17030 ft 465 kts 80°
2026-05-09 00:38 39.04005 -76.10757 17032 ft 465 kts 80°
2026-05-09 00:38 39.04390 -76.06621 17023 ft 465 kts 81°
2026-05-09 00:38 39.04694 -76.02472 17027 ft 466 kts 83°
2026-05-09 00:39 39.04907 -75.98310 17024 ft 467 kts 84°
2026-05-09 00:39 39.05062 -75.94146 17028 ft 467 kts 85°
2026-05-09 00:39 39.05197 -75.89973 17024 ft 467 kts 85°
2026-05-09 00:39 39.05335 -75.85802 17022 ft 467 kts 85°
2026-05-09 00:40 39.05490 -75.81632 17021 ft 467 kts 84°
2026-05-09 00:40 39.05663 -75.77457 17020 ft 467 kts 84°
2026-05-09 00:40 39.05848 -75.73289 17016 ft 467 kts 84°
2026-05-09 00:41 39.06230 -75.64985 17004 ft 457 kts 84°
2026-05-09 00:41 39.06405 -75.60983 17011 ft 439 kts 84°
2026-05-09 00:41 39.06565 -75.57104 17010 ft 433 kts 84°
2026-05-09 00:41 39.06721 -75.53290 17004 ft 433 kts 84°
2026-05-09 00:42 39.06883 -75.49373 17008 ft 433 kts 84°
2026-05-09 00:42 39.07041 -75.45556 17011 ft 433 kts 84°
2026-05-09 00:42 39.07199 -75.41638 17002 ft 433 kts 84°
2026-05-09 00:42 39.07355 -75.37769 17003 ft 433 kts 84°
2026-05-09 00:43 39.07718 -75.33993 17012 ft 429 kts 74°
2026-05-09 00:43 39.08519 -75.30321 17017 ft 424 kts 65°
2026-05-09 00:43 39.09713 -75.26881 17013 ft 419 kts 56°
2026-05-09 00:43 39.11239 -75.23725 17022 ft 414 kts 49°
2026-05-09 00:44 39.12862 -75.20654 17023 ft 414 kts 50°
2026-05-09 00:44 39.14493 -75.17544 17024 ft 414 kts 50°
2026-05-09 00:44 39.16099 -75.14470 17032 ft 414 kts 50°
2026-05-09 00:44 39.17710 -75.11386 17033 ft 414 kts 50°
2026-05-09 00:45 39.19315 -75.08315 17034 ft 414 kts 50°
2026-05-09 00:45 39.20926 -75.05231 17030 ft 414 kts 50°
2026-05-09 00:45 39.22528 -75.02157 17034 ft 414 kts 50°
2026-05-09 00:45 39.24114 -74.99110 17031 ft 414 kts 50°
2026-05-09 00:46 39.25740 -74.95985 17029 ft 414 kts 50°
2026-05-09 00:46 39.27320 -74.92943 17034 ft 414 kts 50°
2026-05-09 00:46 39.28924 -74.89857 17029 ft 414 kts 50°
2026-05-09 00:46 39.30546 -74.86735 17032 ft 414 kts 50°
2026-05-09 00:47 39.32121 -74.83699 17027 ft 407 kts 50°
2026-05-09 00:47 39.33657 -74.80721 17033 ft 390 kts 49°
2026-05-09 00:47 39.35125 -74.77866 17037 ft 374 kts 49°
2026-05-09 00:47 39.36545 -74.75108 17038 ft 364 kts 49°
2026-05-09 00:48 39.37956 -74.72392 17046 ft 364 kts 49°
2026-05-09 00:48 39.39366 -74.69684 17037 ft 363 kts 49°
2026-05-09 00:48 39.40776 -74.66975 17036 ft 363 kts 49°
2026-05-09 00:48 39.42183 -74.64257 17038 ft 363 kts 49°
2026-05-09 00:49 39.43585 -74.61538 17037 ft 364 kts 49°
2026-05-09 00:49 39.44986 -74.58814 17037 ft 364 kts 49°
2026-05-09 00:49 39.46395 -74.56094 17038 ft 363 kts 48°
2026-05-09 00:49 39.47829 -74.53404 17038 ft 363 kts 47°
2026-05-09 00:50 39.49280 -74.50733 17035 ft 363 kts 47°
2026-05-09 00:50 39.50738 -74.48071 17038 ft 363 kts 47°
2026-05-09 00:50 39.52198 -74.45405 17036 ft 363 kts 47°
2026-05-09 00:50 39.53653 -74.42738 17037 ft 363 kts 47°
2026-05-09 00:51 39.55104 -74.40068 17040 ft 363 kts 47°
2026-05-09 00:51 39.56556 -74.37383 17042 ft 363 kts 47°
2026-05-09 00:51 39.58000 -74.34705 17041 ft 363 kts 47°
2026-05-09 00:51 39.59446 -74.32017 17040 ft 363 kts 47°
2026-05-09 00:52 39.60889 -74.29330 17045 ft 363 kts 47°
2026-05-09 00:52 39.62334 -74.26638 17042 ft 363 kts 47°
2026-05-09 00:52 39.63778 -74.23946 17044 ft 364 kts 47°
2026-05-09 00:52 39.65225 -74.21257 17040 ft 364 kts 47°
2026-05-09 00:53 39.66683 -74.18579 17041 ft 362 kts 45°
2026-05-09 00:53 39.68318 -74.16138 17042 ft 355 kts 36°
2026-05-09 00:53 39.70149 -74.14018 17043 ft 351 kts 31°
2026-05-09 00:53 39.72014 -74.11975 17043 ft 351 kts 32°
2026-05-09 00:54 39.73879 -74.09919 17041 ft 352 kts 32°
2026-05-09 00:54 39.75741 -74.07857 17042 ft 352 kts 32°
2026-05-09 00:54 39.77601 -74.05795 16768 ft 350 kts 32°
2026-05-09 00:54 39.79446 -74.03747 16513 ft 348 kts 32°
2026-05-09 00:55 39.81302 -74.01692 16202 ft 350 kts 32°
2026-05-09 00:55 39.83158 -73.99639 15801 ft 349 kts 31°
2026-05-09 00:55 39.85070 -73.97897 15577 ft 332 kts 21°
2026-05-09 00:55 39.87080 -73.96473 15230 ft 327 kts 19°
2026-05-09 00:56 39.89074 -73.95068 14862 ft 325 kts 20°
2026-05-09 00:56 39.91054 -73.93670 14507 ft 323 kts 20°
2026-05-09 00:56 39.93022 -73.92280 14152 ft 320 kts 20°
2026-05-09 00:56 39.94972 -73.90904 13803 ft 318 kts 20°
2026-05-09 00:57 39.96906 -73.89536 13389 ft 316 kts 20°
2026-05-09 00:57 39.98836 -73.88167 12936 ft 316 kts 20°
2026-05-09 00:57 40.00761 -73.86796 12466 ft 316 kts 20°
2026-05-09 00:57 40.02684 -73.85413 12016 ft 316 kts 20°
2026-05-09 00:58 40.04620 -73.84035 11561 ft 316 kts 20°
2026-05-09 00:58 40.06553 -73.82673 11112 ft 316 kts 20°
2026-05-09 00:58 40.08488 -73.81322 10670 ft 316 kts 20°
2026-05-09 00:58 40.10436 -73.79973 10233 ft 316 kts 20°
2026-05-09 00:59 40.12384 -73.78637 9793 ft 316 kts 20°
2026-05-09 00:59 40.14336 -73.77310 9323 ft 316 kts 20°
2026-05-09 00:59 40.16280 -73.76004 8920 ft 313 kts 20°
2026-05-09 00:59 40.18212 -73.74716 8512 ft 310 kts 20°
2026-05-09 01:00 40.20130 -73.73449 8100 ft 307 kts 20°
2026-05-09 01:00 40.22033 -73.72203 7699 ft 304 kts 20°
2026-05-09 01:00 40.23922 -73.70976 7289 ft 302 kts 20°
2026-05-09 01:00 40.25799 -73.69764 6884 ft 299 kts 20°
2026-05-09 01:01 40.27659 -73.68573 6489 ft 296 kts 20°
2026-05-09 01:01 40.29461 -73.67425 6275 ft 286 kts 20°
2026-05-09 01:01 40.31206 -73.66306 6110 ft 274 kts 20°
2026-05-09 01:01 40.32901 -73.65214 5931 ft 263 kts 20°
2026-05-09 01:02 40.34504 -73.64184 5604 ft 259 kts 20°
2026-05-09 01:02 40.36118 -73.63158 5217 ft 257 kts 20°
2026-05-09 01:02 40.37723 -73.62154 4837 ft 255 kts 20°
2026-05-09 01:02 40.39322 -73.61169 4455 ft 253 kts 20°
2026-05-09 01:03 40.40911 -73.60204 4098 ft 250 kts 20°
2026-05-09 01:03 40.42493 -73.59253 4019 ft 251 kts 20°
2026-05-09 01:03 40.44073 -73.58306 4021 ft 250 kts 20°
2026-05-09 01:03 40.45664 -73.57354 4021 ft 251 kts 20°
2026-05-09 01:04 40.47247 -73.56404 4016 ft 251 kts 20°
2026-05-09 01:04 40.48836 -73.55451 4019 ft 251 kts 20°
2026-05-09 01:04 40.50443 -73.54494 3691 ft 259 kts 20°
2026-05-09 01:04 40.52093 -73.53718 3549 ft 240 kts
2026-05-09 01:05 40.53671 -73.53954 3329 ft 224 kts 334°
2026-05-09 01:05 40.54948 -73.55020 3036 ft 213 kts 303°
2026-05-09 01:05 40.56426 -73.58483 2981 ft 219 kts 300°
2026-05-09 01:06 40.57210 -73.60196 2792 ft 219 kts 300°
2026-05-09 01:06 40.57994 -73.61909 2525 ft 218 kts 300°
2026-05-09 01:06 40.58766 -73.63601 2241 ft 210 kts 300°
2026-05-09 01:06 40.59486 -73.65179 1979 ft 193 kts 300°
2026-05-09 01:07 40.60146 -73.66630 1722 ft 176 kts 300°
2026-05-09 01:07 40.60746 -73.67948 1483 ft 161 kts 300°
2026-05-09 01:07 40.61295 -73.69153 1277 ft 147 kts 300°
2026-05-09 01:07 40.61638 -73.69907 1157 ft 144 kts 300°
2026-05-09 01:08 40.62069 -73.70859 997 ft 146 kts 301°
2026-05-09 01:08 40.62419 -73.71611 856 ft 146 kts 302°
2026-05-09 01:08 40.62969 -73.72756 666 ft 150 kts 301°
2026-05-09 01:09 40.63502 -73.73946 422 ft 151 kts 300°
2026-05-09 01:09 40.64038 -73.75134 250 ft 151 kts 299°
2026-05-09 01:09 40.64565 -73.76326 55 ft 151 kts 300°
2026-05-09 01:09 40.65069 -73.77454 18 ft 116 kts 300°
2026-05-09 01:10 40.65325 -73.78028 19 ft 39 kts 299°
2026-05-09 01:10 40.65422 -73.78259 19 ft 10 kts 288°
2026-05-09 01:10 40.65411 -73.78343 19 ft 9 kts 244°
2026-05-09 01:10 40.65369 -73.78427 17 ft 12 kts 236°
2026-05-09 01:11 40.65299 -73.78467 16 ft 12 kts 156°
2026-05-09 01:11 40.65258 -73.78372 16 ft 13 kts 111°
2026-05-09 01:11 40.65214 -73.78266 16 ft 14 kts 121°
2026-05-09 01:11 40.65162 -73.78150 16 ft 16 kts 121°
2026-05-09 01:12 40.65102 -73.78018 16 ft 18 kts 121°
2026-05-09 01:12 40.65036 -73.77871 16 ft 20 kts 121°
2026-05-09 01:12 40.64964 -73.77711 16 ft 21 kts 121°
2026-05-09 01:12 40.64886 -73.77542 16 ft 22 kts 121°
2026-05-09 01:13 40.64802 -73.77362 17 ft 24 kts 121°
2026-05-09 01:13 40.64724 -73.77185 16 ft 16 kts 120°
2026-05-09 01:13 40.64640 -73.77093 16 ft 17 kts 165°
2026-05-09 01:13 40.64518 -73.77086 16 ft 18 kts 182°
2026-05-09 01:14 40.64394 -73.77134 16 ft 19 kts 212°
2026-05-09 01:14 40.64275 -73.77233 16 ft 21 kts 211°
2026-05-09 01:14 40.64142 -73.77332 16 ft 23 kts 208°
2026-05-09 01:14 40.64000 -73.77438 16 ft 24 kts 210°
2026-05-09 01:15 40.63851 -73.77557 16 ft 26 kts 212°
2026-05-09 01:15 40.63713 -73.77666 16 ft 12 kts 212°
2026-05-09 01:15 40.63647 -73.77718 16 ft 12 kts 211°
2026-05-09 01:15 40.63567 -73.77803 16 ft 15 kts 253°
2026-05-09 01:16 40.63597 -73.77881 16 ft 8 kts 341°
2026-05-09 01:16 40.63649 -73.77894 16 ft 7 kts 353°
2026-05-09 01:16 40.63695 -73.77902 16 ft 6 kts 352°
2026-05-09 01:17 40.63826 -73.77924 16 ft 11 kts 353°
2026-05-09 01:17 40.63895 -73.77935 16 ft 9 kts 353°
2026-05-09 01:17 40.63972 -73.77946 16 ft 16 kts 353°
2026-05-09 01:17 40.64070 -73.77990 16 ft 14 kts 331°
2026-05-09 01:18 40.64146 -73.78052 16 ft 11 kts 315°
2026-05-09 01:18 40.64142 -73.78121 17 ft 7 kts 237°
2026-05-09 01:18 40.64126 -73.78158 17 ft 3 kts 240°
2026-05-09 01:18 40.64125 -73.78160 17 ft 0 kts 240°